Weather History for Exeter, United Kingdom

Change the Weather History Date:

Wednesday, October 30, 2013

  Actual Average Record
Temperature  
Mean Temperature 48 °F -  
Max Temperature 59 °F 51 °F 66 °F (2001)
Min Temperature 36 °F 39 °F 35 °F (2003)
Degree Days  
Heating Degree Days 18    
Moisture  
Dew Point 48 °F    
Average Humidity 89    
Maximum Humidity 100    
Minimum Humidity 66    
Precipitation  
Precipitation 0.01 in - - ()
Sea Level Pressure  
Sea Level Pressure 30.08 in    
Wind  
Wind Speed 7 mph ()    
Max Wind Speed 20 mph    
Max Gust Speed 31 mph    
Visibility 6.2 miles    
Events Rain    
Averages and records for this station are not official NWS values.
T = Trace of Precipitation, MM = Missing Value Source: Averaged Metar Reports

Daily Weather History Graph

Daily Weather History Graph

Search for Another Location

Airport:

Trip Planner

Search our weather history database for the weather conditions in past years. The results will help you decide how hot, cold, wet, or windy it might be!

Date:

Astronomy

Oct. 30, 2013 Rise Set
Actual Time 7:01 AM GMT 4:51 PM GMT
Civil Twilight 6:27 AM GMT 5:26 PM GMT
Nautical Twilight 5:48 AM GMT 6:04 PM GMT
Astronomical Twilight 5:10 AM GMT 6:42 PM GMT
Moon 2:09 AM GMT (10/30) 2:52 PM GMT (10/30)
Length of Visible Light 10h 58m
Length of Day
9h 50m
Waning Crescent, 18% of the Moon is Illuminated
Oct 30
Waning Crescent
Nov 3
New
Nov 10
First Quarter
Nov 17
Full
Nov 25
Last Quarter

Hourly Weather History & Observations

Time (GMT) Temp. Windchill Dew Point Humidity Pressure Visibility Wind Dir Wind Speed Gust Speed Precip Events Conditions
12:00 AM 43 °F - 41 °F 92%  in - Calm Calm - -  
12:20 AM 41.0 °F - 41.0 °F 100% 30.09 in 6.2 mi SW 2.3 mph - N/A   Partly Cloudy
12:50 AM 41.0 °F - 41.0 °F 100% 30.12 in 6.2 mi SW 2.3 mph - N/A   Partly Cloudy
1:20 AM 41.0 °F - 41.0 °F 100% 30.12 in 6.2 mi Variable 1.2 mph - N/A   Partly Cloudy
1:50 AM 41.0 °F - 39.2 °F 93% 30.12 in 6.2 mi South 2.3 mph - N/A   Partly Cloudy
5:20 AM 37.4 °F - 37.4 °F 100% 30.12 in 6.2 mi Calm Calm - N/A   Partly Cloudy
5:50 AM 39.2 °F - 39.2 °F 100% 30.12 in 6.2 mi Calm Calm - N/A   Partly Cloudy
6:00 AM 40 °F - 39 °F 97%  in - Calm Calm - -  
6:20 AM 39.2 °F - 39.2 °F 100% 30.12 in 6.2 mi Variable 2.3 mph - N/A   Partly Cloudy
6:50 AM 39.2 °F - 39.2 °F 100% 30.12 in 6.2 mi ENE 2.3 mph - N/A   Partly Cloudy
7:20 AM 41.0 °F 39.0 °F 41.0 °F 100% 30.12 in 6.2 mi Variable 3.5 mph - N/A   Partly Cloudy
7:50 AM 41.0 °F 39.0 °F 39.2 °F 93% 30.15 in 6.2 mi Variable 3.5 mph - N/A   Partly Cloudy
8:20 AM 41.0 °F - 41.0 °F 100% 30.15 in 6.2 mi Variable 1.2 mph - N/A   Partly Cloudy
8:50 AM 44.6 °F - 44.6 °F 100% 30.15 in - Variable 2.3 mph - N/A   Clear
9:00 AM 49 °F - 48 °F 97%  in - Calm Calm - -  
9:20 AM 48.2 °F - 48.2 °F 100% 30.15 in 6.2 mi SSW 4.6 mph - N/A   Partly Cloudy
9:50 AM 51.8 °F - 50.0 °F 94% 30.12 in 6.2 mi South 8.1 mph - N/A   Partly Cloudy
10:20 AM 53.6 °F - 50.0 °F 88% 30.12 in 6.2 mi South 6.9 mph - N/A   Partly Cloudy
10:50 AM 53.6 °F - 50.0 °F 88% 30.12 in 6.2 mi SSW 11.5 mph - N/A   Scattered Clouds
11:20 AM 55.4 °F - 50.0 °F 82% 30.12 in 6.2 mi SSW 11.5 mph - N/A   Mostly Cloudy
11:50 AM 57.2 °F - 50.0 °F 77% 30.12 in 6.2 mi SSW 13.8 mph - N/A   Scattered Clouds
12:00 PM 57 °F - 49 °F 66%  in - Calm Calm - -  
12:20 PM 57.2 °F - 50.0 °F 77% 30.09 in 6.2 mi SSW 15.0 mph - N/A   Scattered Clouds
12:50 PM 57.2 °F - 46.4 °F 67% 30.09 in 6.2 mi SSW 18.4 mph - N/A   Partly Cloudy
1:20 PM 57.2 °F - 48.2 °F 72% 30.09 in 6.2 mi SSW 16.1 mph - N/A   Scattered Clouds
1:50 PM 57.2 °F - 48.2 °F 72% 30.09 in 6.2 mi SSW 19.6 mph - N/A   Scattered Clouds
2:20 PM 57.2 °F - 48.2 °F 72% 30.06 in 6.2 mi SW 18.4 mph - N/A Rain Light Rain
2:50 PM 57.2 °F - 50.0 °F 77% 30.06 in 6.2 mi SSW 17.3 mph - N/A   Scattered Clouds
3:00 PM 57 °F - 49 °F 68%  in - Calm Calm - -  
3:20 PM 57.2 °F - 48.2 °F 72% 30.06 in 6.2 mi SSW 17.3 mph - N/A   Scattered Clouds
3:50 PM 57.2 °F - 50.0 °F 77% 30.06 in 6.2 mi SSW 16.1 mph - N/A   Scattered Clouds
4:20 PM 57.2 °F - 50.0 °F 77% 30.04 in 6.2 mi SSW 19.6 mph 31.1 mph N/A   Scattered Clouds
4:50 PM 55.4 °F - 50.0 °F 82% 30.04 in 6.2 mi SSW 18.4 mph - N/A   Scattered Clouds
5:20 PM 55.4 °F - 50.0 °F 82% 30.04 in 6.2 mi South 13.8 mph - N/A   Scattered Clouds
5:50 PM 55.4 °F - 50.0 °F 82% 30.04 in 6.2 mi South 16.1 mph - N/A   Scattered Clouds
6:00 PM 55 °F - 51 °F 81%  in - Calm Calm - -  
6:20 PM 53.6 °F - 51.8 °F 94% 30.04 in 6.2 mi SSW 18.4 mph - N/A   Scattered Clouds
6:50 PM 53.6 °F - 51.8 °F 94% 30.04 in 6.2 mi South 15.0 mph - N/A   Scattered Clouds
7:20 PM 53.6 °F - 53.6 °F 100% 30.04 in 6.2 mi South 15.0 mph - N/A Rain Light Rain Showers
7:50 PM 53.6 °F - 53.6 °F 100% 30.04 in 6.2 mi South 15.0 mph - N/A Rain Light Rain
8:20 PM 55.4 °F - 53.6 °F 94% 30.04 in 6.2 mi South 13.8 mph - N/A Rain Light Rain
8:50 PM 55.4 °F - 53.6 °F 94% 30.04 in 6.2 mi SSW 15.0 mph - N/A Rain Light Rain
9:00 PM 55 °F - 54 °F 93%  in - Calm Calm - -  
9:20 PM 55.4 °F - 53.6 °F 94% 30.01 in 6.2 mi SSW 17.3 mph - N/A Rain Light Rain
9:50 PM 55.4 °F - 53.6 °F 94% 30.01 in 6.2 mi SSW 15.0 mph - N/A Rain Light Rain
10:20 PM 55.4 °F - 55.4 °F 100% 30.01 in 6.2 mi SSW 15.0 mph - N/A Rain Light Rain
10:50 PM 55.4 °F - 53.6 °F 94% 30.01 in 6.2 mi SW 11.5 mph - N/A   Scattered Clouds
11:20 PM 55.4 °F - 53.6 °F 94% 30.04 in 6.2 mi SW 9.2 mph - N/A   Scattered Clouds
11:50 PM 53.6 °F - 51.8 °F 94% 30.04 in 6.2 mi WSW 8.1 mph - N/A   Scattered Clouds